Location: Observatoire
(46.1952°N, 5.3391°E)
Time: 12:47:48
(UTC+01:00)

Transit 2A Rocket - All Passes

Search period start: 16 February 2026 00:00
Search period end: 26 February 2026 00:00
Orbit: 582 x 901 km, 66.7° (Epoch: 16 February)

Date Brightness Start Highest point End Pass type
(mag) Time Alt. Az. Time Alt. Az. Time Alt. Az.
16 Feb - 01:37:31 10° NNW 01:43:07 73° NE 01:48:10 10° SE night (unlit)
16 Feb - 03:21:14 10° WNW 03:24:47 18° WSW 03:28:06 10° SSW night (unlit)
16 Feb - 16:11:48 10° S 16:17:06 33° ESE 16:22:25 10° NE daylight
16 Feb - 17:53:29 10° SW 17:59:22 52° NW 18:05:12 10° NNE daylight
16 Feb - 19:39:27 10° WNW 19:43:09 16° NNW 19:46:49 10° N visible
16 Feb - 23:10:25 10° N 23:13:21 14° NNE 23:16:11 10° NE visible
17 Feb - 00:51:57 10° NNW 00:57:19 44° NE 01:02:13 10° ESE night (unlit)
17 Feb - 02:34:46 10° NW 02:39:32 32° WSW 02:43:56 10° S night (unlit)
17 Feb - 15:27:37 10° SSE 15:31:49 20° ESE 15:36:01 10° ENE daylight
17 Feb - 17:07:34 10° SW 17:13:36 81° NW 17:19:37 10° NNE daylight
17 Feb - 18:52:19 10° W 18:56:56 22° NW 19:01:28 10° NNE visible
17 Feb - 22:25:19 10° N 22:26:58 11° NNE 22:28:35 10° NNE visible
18 Feb - 00:06:30 10° NNW 00:11:22 29° NE 00:15:53 10° E visible
18 Feb - 01:48:47 10° NW 01:54:09 57° WSW 01:59:01 10° SSE night (unlit)
18 Feb - 14:45:11 10° ESE 14:46:40 11° E 14:48:08 10° E daylight
18 Feb - 16:22:04 10° SSW 16:27:59 64° ESE 16:33:56 10° NE daylight
18 Feb - 18:05:32 10° WSW 18:10:51 31° NW 18:16:05 10° NNE daylight
18 Feb - 19:53:04 10° NW 19:55:12 12° NNW 19:57:20 10° N visible
18 Feb - 23:21:07 10° NNW 23:25:16 20° NNE 23:29:10 10° E visible
19 Feb - 01:03:01 10° NNW 01:08:35 84° NE 01:13:36 10° SE night (unlit)
19 Feb - 02:47:12 10° WNW 02:50:05 15° WSW 02:52:50 10° SW night (unlit)
19 Feb - 15:37:01 10° S 15:42:31 39° ESE 15:48:02 10° NE daylight
19 Feb - 17:19:08 10° WSW 17:24:55 46° NW 17:30:38 10° NNE daylight
19 Feb - 19:05:27 10° WNW 19:08:50 15° NNW 19:12:09 10° N visible
19 Feb - 22:35:48 10° N 22:39:01 15° NNE 22:42:06 10° ENE visible
20 Feb - 00:17:26 10° NNW 00:22:51 51° NE 00:27:46 10° SE visible
20 Feb - 02:00:27 10° NW 02:04:54 27° WSW 02:09:01 10° SSW night (unlit)
20 Feb - 14:52:35 10° SSE 14:57:11 23° ESE 15:01:47 10° ENE daylight
20 Feb - 16:33:06 10° SW 16:39:07 71° NW 16:45:05 10° NNE daylight
20 Feb - 18:18:12 10° W 18:22:34 20° NNW 18:26:51 10° NNE daylight
20 Feb - 21:50:40 10° N 21:52:39 12° NNE 21:54:36 10° NE visible
20 Feb - 23:31:56 10° NNW 23:36:56 32° NE 23:41:32 10° ESE visible
21 Feb - 01:14:20 10° NW 01:19:33 48° WSW 01:24:17 10° S night (unlit)
21 Feb - 14:09:17 10° SE 14:11:59 13° ESE 14:14:40 10° ENE daylight
21 Feb - 15:47:27 10° SSW 15:53:27 74° ESE 15:59:26 10° NE daylight
21 Feb - 17:31:20 10° W 17:36:26 28° NW 17:41:29 10° NNE daylight
21 Feb - 19:19:16 10° NNW 19:20:55 11° NNW 19:22:33 10° N visible
21 Feb - 22:46:32 10° NNW 22:50:52 22° NE 22:54:56 10° E visible
22 Feb - 00:28:32 10° NW 00:34:02 84° WSW 00:39:00 10° SSE visible
22 Feb - 02:13:24 10° WNW 02:15:23 12° W 02:17:17 10° SW night (unlit)
22 Feb - 15:02:16 10° S 15:07:56 45° ESE 15:13:35 10° NE daylight
22 Feb - 16:44:48 10° WSW 16:50:28 41° NW 16:56:03 10° NNE daylight
22 Feb - 18:31:29 10° NW 18:34:30 14° NNW 18:37:28 10° N daylight
22 Feb - 22:01:13 10° N 22:04:40 16° NNE 22:07:58 10° ENE visible
22 Feb - 23:42:53 10° NNW 23:48:21 58° NE 23:53:17 10° SE visible
23 Feb - 01:26:10 10° WNW 01:30:13 23° WSW 01:34:01 10° SSW night (unlit)
23 Feb - 14:17:37 10° SSE 14:22:33 27° ESE 14:27:29 10° NE daylight
23 Feb - 15:58:38 10° SW 16:04:37 62° NW 16:10:32 10° NNE daylight
23 Feb - 17:44:08 10° WNW 17:48:12 18° NNW 17:52:12 10° NNE daylight
23 Feb - 21:16:01 10° N 21:18:20 12° NNE 21:20:35 10° NE visible
23 Feb - 22:57:23 10° NNW 23:02:29 36° NE 23:07:10 10° ESE visible
24 Feb - 00:39:56 10° NW 00:44:56 40° WSW 00:49:29 10° S night (unlit)
24 Feb - 13:33:51 10° SE 13:37:18 16° ESE 13:40:45 10° ENE daylight
24 Feb - 15:12:52 10° SSW 15:18:55 84° ESE 15:24:55 10° NE daylight
24 Feb - 16:57:08 10° W 17:02:02 25° NW 17:06:51 10° NNE daylight
24 Feb - 18:45:36 10° NNW 18:46:37 10° NNW 18:47:37 10° N visible
24 Feb - 20:31:31 10° N 20:31:54 10° NNE 20:32:16 10° NNE visible
24 Feb - 22:11:57 10° NNW 22:16:28 25° NE 22:20:40 10° E visible
24 Feb - 23:54:03 10° NW 23:59:28 72° WSW 00:04:21 10° SSE visible
25 Feb - 14:27:32 10° S 14:33:21 52° ESE 14:39:08 10° NE daylight
25 Feb - 16:10:29 10° WSW 16:16:01 36° NW 16:21:26 10° NNE daylight
25 Feb - 17:57:33 10° NW 18:00:10 13° NNW 18:02:45 10° N daylight
25 Feb - 21:26:36 10° N 21:30:18 18° NNE 21:33:47 10° ENE visible
25 Feb - 23:08:22 10° NNW 23:13:50 68° NE 23:18:45 10° SE visible
